User: anonymous   Login
Location: Stoke Bliss
(52.2667°N, 2.5167°W)
Time: 01:54:31
(UTC+00:00)
Language:

Cosmos 1536 - Orbit

View from above orbital plane
View from above orbital plane
View from above satellite
View from above satellite

Ground track
Ground track

The orbit data is extracted from the following two-line orbital elements,

1 14699U 84013A   21136.37608232  .00000605  00000-0  39725-4 0  9990
2 14699  82.5285  25.0848 0011777 213.7395 146.3083 15.05807403  6960
Epoch (UTC): 16 May 2021 09:01:33
Eccentricity: 0.0011777
inclination: 82.5285°
perigee height: 541 km
apogee height: 557 km
right ascension of ascending node: 25.0848°
argument of perigee: 213.7395°
revolutions per day: 15.05807403
mean anomaly at epoch: 146.3083°
orbit number at epoch: 696

The dashed part of the orbit path shows where the satellite is in the earth's shadow,  

DLR